Time,TemperatureF,DewpointF,PressureIn,WindDirection,WindDirectionDegrees,WindSpeedMPH,WindSpeedGustMPH,Humidity,HourlyPrecipIn,Conditions,Clouds,dailyrainin,SoftwareType,DateUTC
2013-10-17 00:07:00,64.8,64.2,29.75,SSW,202,0.0,-999.0,98,-99.99,,,0.00,Acu-Link.com,2013-10-17 04:07:00,
2013-10-17 00:22:00,64.8,64.2,29.75,SW,225,0.0,-999.0,98,-99.99,,,0.00,Acu-Link.com,2013-10-17 04:22:00,
2013-10-17 00:37:00,64.8,64.2,29.75,SW,225,0.0,-999.0,98,-99.99,,,0.00,Acu-Link.com,2013-10-17 04:37:00,
2013-10-17 00:52:00,64.8,64.2,29.75,South,180,0.0,-999.0,98,-99.99,,,0.02,Acu-Link.com,2013-10-17 04:52:00,
2013-10-17 01:08:00,64.8,64.2,29.75,WNW,292,0.0,-999.0,98,-99.99,,,0.04,Acu-Link.com,2013-10-17 05:08:00,
2013-10-17 01:38:00,64.8,64.2,29.75,South,180,0.0,-999.0,98,-99.99,,,0.04,Acu-Link.com,2013-10-17 05:38:00,
2013-10-17 01:55:00,64.8,64.2,29.75,South,180,0.0,-999.0,98,-99.99,,,0.04,Acu-Link.com,2013-10-17 05:55:00,
2013-10-17 02:10:00,64.8,64.2,29.75,SW,225,0.0,-999.0,98,-99.99,,,0.04,Acu-Link.com,2013-10-17 06:10:00,
2013-10-17 02:26:00,64.8,64.2,29.75,SW,225,0.0,-999.0,98,-99.99,,,0.04,Acu-Link.com,2013-10-17 06:26:00,
2013-10-17 02:41:00,64.8,64.2,29.75,SSW,202,0.0,-999.0,98,-99.99,,,0.05,Acu-Link.com,2013-10-17 06:41:00,
2013-10-17 02:57:00,64.8,64.2,29.75,East,90,0.0,-999.0,98,-99.99,,,0.06,Acu-Link.com,2013-10-17 06:57:00,
2013-10-17 03:13:00,64.8,64.2,29.75,WSW,247,0.0,-999.0,98,-99.99,,,0.06,Acu-Link.com,2013-10-17 07:13:00,
2013-10-17 03:28:00,64.9,64.3,29.75,NNE,22,0.0,-999.0,98,-99.99,,,0.07,Acu-Link.com,2013-10-17 07:28:00,
2013-10-17 03:44:00,64.9,64.3,29.74,SW,225,1.7,-999.0,98,-99.99,,,0.08,Acu-Link.com,2013-10-17 07:44:00,
2013-10-17 03:59:00,64.9,64.3,29.74,West,270,1.1,-999.0,98,-99.99,,,0.08,Acu-Link.com,2013-10-17 07:59:00,
2013-10-17 04:14:00,64.9,64.3,29.74,South,180,0.0,-999.0,98,-99.99,,,0.08,Acu-Link.com,2013-10-17 08:14:00,
2013-10-17 04:30:00,64.9,64.3,29.73,WSW,247,2.2,-999.0,98,-99.99,,,0.08,Acu-Link.com,2013-10-17 08:30:00,
2013-10-17 04:45:00,64.9,64.3,29.73,South,180,2.2,-999.0,98,-99.99,,,0.10,Acu-Link.com,2013-10-17 08:45:00,
2013-10-17 05:01:00,64.9,64.3,29.73,WSW,247,0.0,-999.0,98,-99.99,,,0.10,Acu-Link.com,2013-10-17 09:01:00,
2013-10-17 05:16:00,64.9,64.3,29.72,ESE,112,0.0,-999.0,98,-99.99,,,0.10,Acu-Link.com,2013-10-17 09:16:00,
2013-10-17 05:31:00,64.9,64.3,29.72,SE,135,0.0,-999.0,98,-99.99,,,0.12,Acu-Link.com,2013-10-17 09:31:00,
2013-10-17 05:46:00,64.9,64.3,29.71,NNE,22,3.7,-999.0,98,-99.99,,,0.13,Acu-Link.com,2013-10-17 09:46:00,
2013-10-17 06:01:00,65.1,64.5,29.71,SSE,157,0.0,-999.0,98,-99.99,,,0.14,Acu-Link.com,2013-10-17 10:01:00,
2013-10-17 06:17:00,65.1,64.5,29.71,ESE,112,2.7,-999.0,98,-99.99,,,0.14,Acu-Link.com,2013-10-17 10:17:00,
2013-10-17 06:32:00,65.3,64.7,29.71,East,90,0.0,-999.0,98,-99.99,,,0.14,Acu-Link.com,2013-10-17 10:32:00,
2013-10-17 06:47:00,65.3,64.7,29.71,NNW,337,0.0,-999.0,98,-99.99,,,0.14,Acu-Link.com,2013-10-17 10:47:00,
2013-10-17 07:02:00,65.3,64.7,29.70,ESE,112,0.0,-999.0,98,-99.99,,,0.15,Acu-Link.com,2013-10-17 11:02:00,
2013-10-17 07:18:00,65.3,64.7,29.70,SE,135,0.0,-999.0,98,-99.99,,,0.15,Acu-Link.com,2013-10-17 11:18:00,
2013-10-17 07:33:00,65.3,64.7,29.70,ENE,67,0.0,-999.0,98,-99.99,,,0.16,Acu-Link.com,2013-10-17 11:33:00,
2013-10-17 07:48:00,65.3,64.7,29.71,WNW,292,0.0,-999.0,98,-99.99,,,0.16,Acu-Link.com,2013-10-17 11:48:00,
2013-10-17 08:04:00,65.3,64.7,29.70,South,180,2.7,-999.0,98,-99.99,,,0.18,Acu-Link.com,2013-10-17 12:04:00,
2013-10-17 08:19:00,65.1,64.5,29.70,East,90,2.2,-999.0,98,-99.99,,,0.19,Acu-Link.com,2013-10-17 12:19:00,
2013-10-17 08:34:00,65.1,64.5,29.71,NW,315,1.7,-999.0,98,-99.99,,,0.20,Acu-Link.com,2013-10-17 12:34:00,
2013-10-17 08:49:00,65.1,64.5,29.71,SSE,157,1.1,-999.0,98,-99.99,,,0.20,Acu-Link.com,2013-10-17 12:49:00,
2013-10-17 09:04:00,65.1,64.5,29.71,East,90,2.2,-999.0,98,-99.99,,,0.20,Acu-Link.com,2013-10-17 13:04:00,
2013-10-17 09:20:00,65.1,64.5,29.72,South,180,2.7,-999.0,98,-99.99,,,0.20,Acu-Link.com,2013-10-17 13:20:00,
2013-10-17 09:35:00,65.3,64.7,29.72,North,0,2.2,-999.0,98,-99.99,,,0.20,Acu-Link.com,2013-10-17 13:35:00,
2013-10-17 09:50:00,65.5,64.9,29.72,NNW,337,2.7,-999.0,98,-99.99,,,0.20,Acu-Link.com,2013-10-17 13:50:00,
2013-10-17 10:05:00,65.7,65.1,29.72,SSW,202,1.7,-999.0,98,-99.99,,,0.21,Acu-Link.com,2013-10-17 14:05:00,
2013-10-17 10:20:00,65.8,65.2,29.72,WSW,247,3.2,-999.0,98,-99.99,,,0.26,Acu-Link.com,2013-10-17 14:20:00,
2013-10-17 10:36:00,66.0,65.4,29.72,SSW,202,0.0,-999.0,98,-99.99,,,0.27,Acu-Link.com,2013-10-17 14:36:00,
2013-10-17 10:51:00,66.4,65.8,29.73,NW,315,0.0,-999.0,98,-99.99,,,0.27,Acu-Link.com,2013-10-17 14:51:00,
2013-10-17 11:06:00,66.9,66.3,29.73,ENE,67,2.2,-999.0,98,-99.99,,,0.27,Acu-Link.com,2013-10-17 15:06:00,
2013-10-17 11:21:00,67.8,67.2,29.73,WNW,292,2.2,-999.0,98,-99.99,,,0.27,Acu-Link.com,2013-10-17 15:21:00,
2013-10-17 11:37:00,68.4,67.8,29.73,West,270,0.0,-999.0,98,-99.99,,,0.27,Acu-Link.com,2013-10-17 15:37:00,
2013-10-17 11:52:00,69.6,69.0,29.73,NNW,337,0.0,-999.0,98,-99.99,,,0.28,Acu-Link.com,2013-10-17 15:52:00,
2013-10-17 12:07:00,71.8,71.2,29.71,NE,45,1.1,-999.0,98,-99.99,,,0.28,Acu-Link.com,2013-10-17 16:07:00,
2013-10-17 12:22:00,73.6,73.0,29.72,NE,45,1.7,-999.0,98,-99.99,,,0.28,Acu-Link.com,2013-10-17 16:22:00,
2013-10-17 12:37:00,73.8,73.2,29.71,WSW,247,0.0,-999.0,98,-99.99,,,0.28,Acu-Link.com,2013-10-17 16:37:00,
2013-10-17 12:53:00,74.8,74.2,29.71,SE,135,0.0,-999.0,98,-99.99,,,0.28,Acu-Link.com,2013-10-17 16:53:00,
2013-10-17 13:08:00,73.9,73.3,29.72,NNW,337,1.1,-999.0,98,-99.99,,,0.28,Acu-Link.com,2013-10-17 17:08:00,
2013-10-17 13:23:00,73.6,73.0,29.72,WSW,247,2.7,-999.0,98,-99.99,,,0.28,Acu-Link.com,2013-10-17 17:23:00,
2013-10-17 13:39:00,76.6,71.7,29.71,West,270,1.7,-999.0,85,-99.99,,,0.28,Acu-Link.com,2013-10-17 17:39:00,
2013-10-17 13:54:00,77.0,68.8,29.70,ENE,67,1.7,-999.0,76,-99.99,,,0.28,Acu-Link.com,2013-10-17 17:54:00,
2013-10-17 14:09:00,74.1,70.3,29.69,West,270,2.2,-999.0,88,-99.99,,,0.28,Acu-Link.com,2013-10-17 18:09:00,
2013-10-17 14:24:00,71.2,70.6,29.70,North,0,4.7,-999.0,98,-99.99,,,0.28,Acu-Link.com,2013-10-17 18:24:00,
2013-10-17 14:40:00,72.3,71.1,29.69,SSW,202,2.2,-999.0,96,-99.99,,,0.28,Acu-Link.com,2013-10-17 18:40:00,
2013-10-17 14:55:00,72.1,69.0,29.68,NW,315,2.2,-999.0,90,-99.99,,,0.28,Acu-Link.com,2013-10-17 18:55:00,
2013-10-17 15:10:00,71.8,66.3,29.69,SE,135,3.2,-999.0,83,-99.99,,,0.28,Acu-Link.com,2013-10-17 19:10:00,
2013-10-17 15:25:00,72.1,67.0,29.70,NNE,22,2.2,-999.0,84,-99.99,,,0.28,Acu-Link.com,2013-10-17 19:25:00,
2013-10-17 15:41:00,71.6,65.8,29.71,SW,225,3.7,-999.0,82,-99.99,,,0.28,Acu-Link.com,2013-10-17 19:41:00,
2013-10-17 15:56:00,70.5,66.1,29.71,SSW,202,0.0,-999.0,86,-99.99,,,0.28,Acu-Link.com,2013-10-17 19:56:00,
2013-10-17 16:11:00,69.1,64.7,29.71,SSW,202,2.7,-999.0,86,-99.99,,,0.28,Acu-Link.com,2013-10-17 20:11:00,
2013-10-17 16:26:00,68.4,66.9,29.71,SW,225,0.0,-999.0,95,-99.99,,,0.28,Acu-Link.com,2013-10-17 20:26:00,
2013-10-17 16:41:00,68.4,64.0,29.71,NE,45,2.2,-999.0,86,-99.99,,,0.28,Acu-Link.com,2013-10-17 20:41:00,
2013-10-17 16:57:00,67.3,63.9,29.72,SW,225,2.2,-999.0,89,-99.99,,,0.28,Acu-Link.com,2013-10-17 20:57:00,
2013-10-17 17:12:00,68.5,62.8,29.72,NNW,337,0.0,-999.0,82,-99.99,,,0.28,Acu-Link.com,2013-10-17 21:12:00,
2013-10-17 17:27:00,68.2,61.1,29.72,WSW,247,0.0,-999.0,78,-99.99,,,0.28,Acu-Link.com,2013-10-17 21:27:00,
2013-10-17 17:43:00,66.9,61.2,29.73,SW,225,1.1,-999.0,82,-99.99,,,0.28,Acu-Link.com,2013-10-17 21:43:00,
2013-10-17 17:58:00,65.7,62.0,29.73,WNW,292,1.1,-999.0,88,-99.99,,,0.28,Acu-Link.com,2013-10-17 21:58:00,
2013-10-17 18:13:00,64.6,62.2,29.74,NNW,337,4.2,-999.0,92,-99.99,,,0.28,Acu-Link.com,2013-10-17 22:13:00,
2013-10-17 18:28:00,63.7,63.1,29.76,WNW,292,2.2,-999.0,98,-99.99,,,0.28,Acu-Link.com,2013-10-17 22:28:00,
2013-10-17 18:44:00,62.8,62.2,29.76,WSW,247,3.7,-999.0,98,-99.99,,,0.28,Acu-Link.com,2013-10-17 22:44:00,
2013-10-17 18:59:00,61.9,61.3,29.77,SSW,202,1.7,-999.0,98,-99.99,,,0.28,Acu-Link.com,2013-10-17 22:59:00,
2013-10-17 19:14:00,61.5,60.9,29.77,NNW,337,0.0,-999.0,98,-99.99,,,0.28,Acu-Link.com,2013-10-17 23:14:00,
2013-10-17 19:30:00,60.8,60.2,29.77,WNW,292,1.7,-999.0,98,-99.99,,,0.28,Acu-Link.com,2013-10-17 23:30:00,
2013-10-17 19:45:00,60.4,59.8,29.79,West,270,2.2,-999.0,98,-99.99,,,0.28,Acu-Link.com,2013-10-17 23:45:00,
2013-10-17 20:00:00,59.7,59.1,29.80,SW,225,0.0,-999.0,98,-99.99,,,0.28,Acu-Link.com,2013-10-18 00:00:00,
2013-10-17 20:16:00,59.0,58.4,29.79,West,270,0.0,-999.0,98,-99.99,,,0.28,Acu-Link.com,2013-10-18 00:16:00,
2013-10-17 20:31:00,59.0,58.4,29.80,SSW,202,0.0,-999.0,98,-99.99,,,0.28,Acu-Link.com,2013-10-18 00:31:00,
2013-10-17 20:46:00,59.0,58.4,29.81,SW,225,0.0,-999.0,98,-99.99,,,0.28,Acu-Link.com,2013-10-18 00:46:00,
2013-10-17 21:02:00,58.6,58.0,29.81,SW,225,0.0,-999.0,98,-99.99,,,0.28,Acu-Link.com,2013-10-18 01:02:00,
2013-10-17 21:17:00,58.1,57.5,29.81,WSW,247,0.0,-999.0,98,-99.99,,,0.28,Acu-Link.com,2013-10-18 01:17:00,
2013-10-17 21:32:00,57.4,56.8,29.82,WSW,247,0.0,-999.0,98,-99.99,,,0.28,Acu-Link.com,2013-10-18 01:32:00,
2013-10-17 21:47:00,56.8,56.2,29.82,West,270,0.0,-999.0,98,-99.99,,,0.28,Acu-Link.com,2013-10-18 01:47:00,
2013-10-17 22:03:00,56.1,55.5,29.82,SW,225,0.0,-999.0,98,-99.99,,,0.28,Acu-Link.com,2013-10-18 02:03:00,
2013-10-17 22:18:00,55.2,54.6,29.82,WNW,292,0.0,-999.0,98,-99.99,,,0.28,Acu-Link.com,2013-10-18 02:18:00,
2013-10-17 22:33:00,54.3,53.7,29.82,WNW,292,0.0,-999.0,98,-99.99,,,0.28,Acu-Link.com,2013-10-18 02:33:00,
2013-10-17 22:49:00,53.8,53.2,29.82,WNW,292,0.0,-999.0,98,-99.99,,,0.28,Acu-Link.com,2013-10-18 02:49:00,
2013-10-17 23:04:00,53.1,52.5,29.82,WNW,292,0.0,-999.0,98,-99.99,,,0.28,Acu-Link.com,2013-10-18 03:04:00,
2013-10-17 23:19:00,52.5,52.0,29.82,SW,225,0.0,-999.0,98,-99.99,,,0.28,Acu-Link.com,2013-10-18 03:19:00,
2013-10-17 23:35:00,52.0,51.5,29.82,SW,225,0.0,-999.0,98,-99.99,,,0.28,Acu-Link.com,2013-10-18 03:35:00,
2013-10-17 23:50:00,51.6,51.1,29.82,WSW,247,0.0,-999.0,98,-99.99,,,0.28,Acu-Link.com,2013-10-18 03:50:00,